Location: Champseau
(45.8333°N, 1.7667°E)
Time: 20:39:42
(UTC+00:00)

X-37B - Pass Details

Date: 01 October 2021
Orbit: 385 x 389 km, 45.0° (Epoch: 17 October)

Event Time Altitude Azimuth Distance (km) Brightness Sun altitude
Exits shadow 04:16:04 54° 223° (SW) 477 0.7 -17.3°
Maximum altitude 04:16:22 58° 194° (SSW) 458 0.7 -17.2°
Drops below altitude 10° 04:19:30 10° 114° (ESE) 1,412 4.2 -16.7°
Sets 04:21:35 0° 110° (ESE) 2,265 5.5 -16.4°
